Regional Weather Roundup
Issued by NWS

Home | Current Version | Previous Version | Text Only | Print | Product List | Glossary Off
Versions: 1 2 3 4 5 6 7 8 9 10 11 12 13 14 15 16 17 18 19 20 21 22 23 24 25 26 27 28 29 30 31 32 33 34 35 36 37 38 39 40 41 42 43 44 45 46 47 48 49 50

000
ASUS43 KFSD 190102
RWRSD

WEATHER ROUNDUP FOR SOUTH DAKOTA
NATIONAL WEATHER SERVICE SIOUX FALLS SD
700 PM CST THU JAN 18 2018

NOTE: "FAIR" INDICATES FEW OR NO CLOUDS BELOW 12,000 FEET WITH NO
SIGNIFICANT WEATHER AND/OR OBSTRUCTIONS TO VISIBILITY.


SDZ001>005-009-010-012>017-190200-
NORTHWEST AND NORTH CENTRAL SOUTH DAKOTA

CITY           SKY/WX    TMP DP  RH WIND       PRES   REMARKS
BUFFALO          N/A     41  28  60 W6        29.66F
FAITH            N/A     37  29  72 S10       29.71F
MOBRIDGE       CLOUDY    34  26  72 SE5       29.69F WCI  30
$$

SDZ012>016-024>037-041>051-057-063-072>074-190200-
SOUTHWEST AND SOUTH CENTRAL SOUTH DAKOTA

CITY           SKY/WX    TMP DP  RH WIND       PRES   REMARKS
RAPID CTY ARPT CLOUDY    40  25  55 CALM      29.74F
PIERRE         CLOUDY    35  27  72 S6        29.75F
CUSTER         CLOUDY    45  22  40 W10G18    29.83F
ELLSWORTH AFB  CLOUDY    41  27  57 S7        29.73F
PHILIP         CLOUDY    37  29  72 CALM      29.75F
PINE RIDGE     CLOUDY    40  29  64 SW9       29.82F
SPEARFISH        N/A     52  25  35 CALM      29.75F
WINNER         FAIR      44  32  62 SW13      29.79F
$$

SDZ004>011-016>023-039-040-190200-
NORTHEAST SOUTH DAKOTA

CITY           SKY/WX    TMP DP  RH WIND       PRES   REMARKS
ABERDEEN       MOCLDY    31  26  82 S9        29.74F WCI  23
WATERTOWN      CLOUDY    28  25  88 CALM      29.75S
BROOKINGS      CLOUDY    31  28  89 S8        29.78S WCI  23
SISSETON         N/A     35  25  66 SW3       29.72F
$$

SDZ017-020-022-023-036>040-048>070-190200-
SOUTHEAST SOUTH DAKOTA

CITY           SKY/WX    TMP DP  RH WIND       PRES   REMARKS
SIOUX FALLS    CLOUDY    33  28  81 MISG      29.81F
HURON          CLOUDY    34  29  82 S6        29.77F WCI  29
CHAMBERLAIN    CLOUDY    33  32  94 CALM      29.78F
MITCHELL       CLOUDY    37  31  78 S8        29.80S
YANKTON        CLOUDY    36  26  67 S3        29.84S
$$

ABBREVIATIONS USED IN REMARKS
   TC - TEMPERATURE IN CELSIUS
  WCI - WIND CHILL INDEX
   HX - HEAT INDEX
  VSB - VISIBILITY





USA.gov is the U.S. government's official web portal to all federal, state and local government web resources and services.